EW5421 Weather Reports


time (UTC)temp
F
wind
direction
speed
knots
gust
knots
rain 1hr
in
rain 24hr
in
rain mn
in
humidity
%
barometer
mb
20260507193022 59 254 5.2 10.4 0.00 0.17 0.02 34 1013.4
20260507191514 58 219 3.5 11.3 0.00 0.17 0.02 32 1013.7
20260507190022 58 260 5.2 10.4 0.00 0.18 0.02 30 1014.1
20260507184509 57 205 5.2 9.6 0.00 0.18 0.02 29 1014.2
20260507183015 57 309 0.9 6.1 0.00 0.18 0.02 29 1014.4
20260507181506 56 272 0.9 6.1 0.00 0.18 0.02 29 1014.5
20260507180106 56 291 1.7 6.1 0.00 0.18 0.02 26 1014.9
20260507174558 56 328 2.6 7.8 0.00 0.18 0.02 28 1015.1
20260507173057 56 248 5.2 8.7 0.00 0.18 0.02 33 1015.5
20260507171556 55 314 3.5 6.1 0.01 0.18 0.02 29 1015.8
20260507170050 55 236 1.7 11.3 0.01 0.18 0.02 34 1016.2
20260507164546 54 248 4.3 9.6 0.01 0.18 0.02 31 1016.4
20260507163042 53 277 0.9 6.1 0.01 0.18 0.02 30 1016.6
20260507161540 53 239 3.5 7.8 0.01 0.17 0.01 33 1016.8
20260507160037 52 248 2.6 7.0 0.01 0.17 0.01 36 1017.1
20260507154532 50 241 3.5 7.8 0.01 0.17 0.01 38 1017.5
20260507153026 49 260 3.5 7.8 0.01 0.17 0.01 42 1017.7
20260507151522 48 270 4.3 11.3 0.00 0.16 0.00 45 1017.8
20260507150018 46 273 4.3 7.8 0.00 0.16 0.00 47 1017.8
20260507144515 46 280 2.6 7.0 0.00 0.16 0.00 49 1018.1
20260507143012 44 266 2.6 6.1 0.00 0.16 0.00 48 1018.3
20260507141508 43 274 0.9 4.3 0.00 0.16 0.00 50 1018.3
20260507140006 42 246 1.7 4.3 0.00 0.16 0.00 50 1018.4
20260507134502 41 197 1.7 4.3 0.00 0.16 0.00 50 1018.3
20260507133059 40 218 0.0 4.3 0.00 0.16 0.00 50 1018.2
20260507131604 38 260 0.0 4.3 0.00 0.16 0.00 53 1018.2
20260507130056 35 218 0.0 2.6 0.00 0.16 0.00 57 1018.3
20260507124557 33 218 0.0 1.7 0.00 0.16 0.00 61 1018.2
20260507123053 30 61 0.0 1.7 0.00 0.16 0.00 71 1018.1
20260507121543 28 15 0.9 2.6 0.00 0.16 0.00 73 1017.9
20260507120040 30 254 0.0 0.9 0.00 0.16 0.00 65 1017.9
20260507114540 30 17 0.0 1.7 0.00 0.16 0.00 68 1018.1
20260507113035 28 223 0.0 2.6 0.00 0.16 0.00 72 1018.2
20260507111529 24 60 0.0 0.0 0.00 0.16 0.00 84 1018.2
20260507110029 24 32 0.0 2.6 0.00 0.16 0.00 85 1018.1
20260507104527 24 21 0.9 2.6 0.00 0.16 0.00 86 1018.1
20260507103025 24 30 0.9 4.3 0.00 0.16 0.00 87 1018.0
20260507101533 24 13 1.7 3.5 0.00 0.16 0.00 88 1018.2
20260507100031 24 39 0.0 2.6 0.00 0.16 0.00 88 1018.3
20260507094522 24 35 0.9 2.6 0.00 0.16 0.00 89 1018.1
20260507093033 24 39 0.9 2.6 0.00 0.16 0.00 89 1018.1
20260507091518 24 25 0.9 1.7 0.00 0.16 0.00 90 1018.2
20260507090028 24 21 0.0 2.6 0.00 0.16 0.00 90 1018.2
20260507084516 24 18 0.9 1.7 0.00 0.16 0.00 91 1018.2
20260507083031 24 29 1.7 2.6 0.00 0.16 0.00 91 1018.3
20260507081512 24 43 0.9 1.7 0.00 0.16 0.00 91 1018.3
20260507080009 24 44 0.9 1.7 0.00 0.16 0.00 91 1018.4
20260507074522 24 79 0.0 1.7 0.00 0.16 0.00 90 1018.5
20260507073007 24 38 0.9 1.7 0.00 0.16 0.00 90 1018.6
20260507071505 24 39 0.0 1.7 0.00 0.16 0.00 90 1018.5
20260507070007 24 65 0.9 1.7 0.00 0.16 0.00 89 1018.6
20260507064503 25 66 0.0 0.9 0.00 0.16 0.00 89 1018.6
20260507063101 25 90 0.0 0.9 0.00 0.16 0.00 89 1018.6
20260507061556 25 91 0.0 0.9 0.00 0.16 0.00 90 1018.5
20260507060052 26 91 0.0 0.9 0.00 0.16 0.00 90 1018.5
20260507054603 27 129 0.0 0.0 0.00 0.16 0.16 89 1018.3
20260507053055 27 129 0.0 0.9 0.00 0.16 0.16 89 1018.3
20260507051550 28 119 0.0 1.7 0.00 0.16 0.16 90 1018.1
20260507050049 28 132 0.0 2.6 0.00 0.16 0.16 89 1018.2
20260507044550 28 203 0.9 4.3 0.00 0.16 0.16 90 1018.1
20260507043048 28 201 1.7 3.5 0.00 0.16 0.16 89 1018.1
20260507041551 28 210 1.7 5.2 0.00 0.16 0.16 90 1018.2
20260507040057 28 149 0.9 3.5 0.00 0.16 0.16 90 1018.2
20260507034554 28 169 0.0 1.7 0.00 0.16 0.16 91 1018.1
20260507033046 28 195 0.0 1.7 0.00 0.16 0.16 90 1018.1
20260507031543 28 148 0.0 3.5 0.00 0.16 0.16 90 1018.0
20260507030041 29 190 0.0 6.1 0.00 0.16 0.16 90 1017.7
20260507024539 29 205 0.0 3.5 0.00 0.16 0.16 89 1017.7
20260507023039 29 151 0.9 2.6 0.00 0.16 0.16 87 1017.6
20260507021538 30 200 0.0 3.5 0.00 0.16 0.16 87 1017.6
20260507020038 30 153 0.9 3.5 0.00 0.16 0.16 84 1017.3
20260507014537 32 168 1.7 5.2 0.00 0.16 0.16 80 1017.3
20260507013039 33 166 2.6 6.1 0.00 0.16 0.16 79 1017.3
20260507011540 34 174 3.5 7.8 0.00 0.16 0.16 78 1017.3
20260507010034 33 129 1.7 6.1 0.00 0.16 0.16 79 1017.2
20260507004533 34 143 2.6 7.0 0.00 0.16 0.16 76 1017.0
20260507003033 36 158 2.6 8.7 0.01 0.16 0.16 75 1017.0
20260507001543 37 123 3.5 7.0 0.01 0.16 0.16 71 1016.9
20260507000032 36 206 3.5 9.6 0.02 0.16 0.16 71 1017.0
20260506234541 37 214 1.7 5.2 0.02 0.17 0.16 73 1016.9
20260506233027 36 283 1.7 5.2 0.02 0.16 0.15 71 1017.1
20260506231525 34 212 0.9 3.5 0.02 0.16 0.15 72 1017.0
20260506230022 34 250 0.0 3.5 0.02 0.17 0.14 74 1017.0
20260506224526 34 253 0.0 3.5 0.03 0.17 0.14 77 1016.9
20260506223018 33 306 0.0 3.5 0.04 0.16 0.13 76 1017.1
20260506221516 32 24 2.6 7.8 0.05 0.16 0.13 80 1017.2
20260506220015 32 33 2.6 7.8 0.04 0.16 0.12 79 1017.2
20260506214515 32 33 3.5 10.4 0.04 0.15 0.11 81 1017.1
20260506213020 32 359 3.5 7.8 0.03 0.13 0.09 79 1017.1
20260506211516 32 22 1.7 7.0 0.03 0.12 0.08 81 1017.4
20260506210012 33 335 3.5 9.6 0.03 0.13 0.08 83 1017.4
20260506204509 32 6 2.6 8.7 0.03 0.12 0.07 82 1017.5
20260506203008 32 360 2.6 6.1 0.03 0.11 0.06 82 1017.5
20260506201506 31 293 2.6 9.6 0.03 0.10 0.05 82 1017.4
20260506200010 31 11 3.5 9.6 0.04 0.11 0.05 83 1017.4
20260506194506 30 32 5.2 11.3 0.04 0.10 0.04 83 1017.3